Location: Bakov nad Jizerou
(50.4784°N, 14.9394°E)
Time: 15:29:43
(UTC+00:00)

COSMOS 2428 - Pass Details

Date: 16 June 2021
Orbit: 845 x 858 km, 70.9° (Epoch: 03 August)

Event Time Altitude Azimuth Distance (km) Brightness Sun altitude
Exits shadow 20:19:05 10° 140° (SE) 2,519 4.5 -7.9°
Reaches altitude 10° 20:19:14 10° 138° (SE) 2,486 4.5 -7.9°
Maximum altitude 20:22:51 18° 99° (E) 2,009 4.3 -8.3°
Drops below altitude 10° 20:26:30 10° 59° (ENE) 2,500 5.1 -8.6°
Sets 20:29:45 0° 41° (NE) 3,443 6.1 -8.9°
